owner,sensor,date,latitude,longitude,vertical_datum,sea_water_practical_salinity,qcFlag 
ENP,ioos.station.NOAA.NDBC:TRRF1:1,2015-03-01T00:00:00Z,25.2170,-80.6500,1.5,7.44,1111122 
ENP,ioos.station.NOAA.NDBC:TRRF1:1,2015-03-01T01:00:00Z,25.2170,-80.6500,1.5,7.43,1111122 
ENP,ioos.station.NOAA.NDBC:TRRF1:1,2015-03-01T02:00:00Z,25.2170,-80.6500,1.5,7.37,1111122 
ENP,ioos.station.NOAA.NDBC:TRRF1:1,2015-03-01T04:00:00Z,25.2170,-80.6500,1.5,7.16,1111122 
ENP,ioos.station.NOAA.NDBC:TRRF1:1,2015-03-01T05:00:00Z,25.2170,-80.6500,1.5,7.08,1111122 
ENP,ioos.station.NOAA.NDBC:TRRF1:1,2015-03-01T06:00:00Z,25.2170,-80.6500,1.5,7.05,1111122 
ENP,ioos.station.NOAA.NDBC:TRRF1:1,2015-03-01T07:00:00Z,25.2170,-80.6500,1.5,7.04,1111122 
ENP,ioos.station.NOAA.NDBC:TRRF1:1,2015-03-01T08:00:00Z,25.2170,-80.6500,1.5,7.01,1111122 
ENP,ioos.station.NOAA.NDBC:TRRF1:1,2015-03-01T09:00:00Z,25.2170,-80.6500,1.5,6.92,1111122 
ENP,ioos.station.NOAA.NDBC:TRRF1:1,2015-03-01T10:00:00Z,25.2170,-80.6500,1.5,6.82,1111122 
ENP,ioos.station.NOAA.NDBC:TRRF1:1,2015-03-01T11:00:00Z,25.2170,-80.6500,1.5,6.57,1111122 
ENP,ioos.station.NOAA.NDBC:TRRF1:1,2015-03-01T13:00:00Z,25.2170,-80.6500,1.5,6.15,1111122 
ENP,ioos.station.NOAA.NDBC:TRRF1:1,2015-03-01T14:00:00Z,25.2170,-80.6500,1.5,5.88,1111122 
ENP,ioos.station.NOAA.NDBC:TRRF1:1,2015-03-01T15:00:00Z,25.2170,-80.6500,1.5,5.68,1111122 
ENP,ioos.station.NOAA.NDBC:TRRF1:1,2015-03-01T16:00:00Z,25.2170,-80.6500,1.5,5.49,1111122 
ENP,ioos.station.NOAA.NDBC:TRRF1:1,2015-03-01T17:00:00Z,25.2170,-80.6500,1.5,5.42,1111122 
ENP,ioos.station.NOAA.NDBC:TRRF1:1,2015-03-01T18:00:00Z,25.2170,-80.6500,1.5,5.24,1111122 
ENP,ioos.station.NOAA.NDBC:TRRF1:1,2015-03-01T19:00:00Z,25.2170,-80.6500,1.5,5.16,1111122 
ENP,ioos.station.NOAA.NDBC:TRRF1:1,2015-03-01T20:00:00Z,25.2170,-80.6500,1.5,5.08,1111122 
ENP,ioos.station.NOAA.NDBC:TRRF1:1,2015-03-01T21:00:00Z,25.2170,-80.6500,1.5,5.02,1111122 
ENP,ioos.station.NOAA.NDBC:TRRF1:1,2015-03-01T22:00:00Z,25.2170,-80.6500,1.5,4.96,1111122 
ENP,ioos.station.NOAA.NDBC:TRRF1:1,2015-03-01T23:00:00Z,25.2170,-80.6500,1.5,4.89,1111122 
ENP,ioos.station.NOAA.NDBC:TRRF1:1,2015-03-02T00:00:00Z,25.2170,-80.6500,1.5,4.82,1111122 
ENP,ioos.station.NOAA.NDBC:TRRF1:1,2015-03-02T01:00:00Z,25.2170,-80.6500,1.5,4.91,1111122 
ENP,ioos.station.NOAA.NDBC:TRRF1:1,2015-03-02T02:00:00Z,25.2170,-80.6500,1.5,4.91,1111122 
ENP,ioos.station.NOAA.NDBC:TRRF1:1,2015-03-02T03:00:00Z,25.2170,-80.6500,1.5,4.79,1111122 
ENP,ioos.station.NOAA.NDBC:TRRF1:1,2015-03-02T04:00:00Z,25.2170,-80.6500,1.5,4.71,1111122 
ENP,ioos.station.NOAA.NDBC:TRRF1:1,2015-03-02T05:00:00Z,25.2170,-80.6500,1.5,4.65,1111122 
ENP,ioos.station.NOAA.NDBC:TRRF1:1,2015-03-02T06:00:00Z,25.2170,-80.6500,1.5,4.55,1111122 
ENP,ioos.station.NOAA.NDBC:TRRF1:1,2015-03-02T07:00:00Z,25.2170,-80.6500,1.5,4.72,1111122 
ENP,ioos.station.NOAA.NDBC:TRRF1:1,2015-03-02T08:00:00Z,25.2170,-80.6500,1.5,4.86,1111122 
ENP,ioos.station.NOAA.NDBC:TRRF1:1,2015-03-02T09:00:00Z,25.2170,-80.6500,1.5,4.86,1111122 
ENP,ioos.station.NOAA.NDBC:TRRF1:1,2015-03-02T14:00:00Z,25.2170,-80.6500,1.5,4.5,1111122 
ENP,ioos.station.NOAA.NDBC:TRRF1:1,2015-03-02T15:00:00Z,25.2170,-80.6500,1.5,4.33,1111122 
ENP,ioos.station.NOAA.NDBC:TRRF1:1,2015-03-02T16:00:00Z,25.2170,-80.6500,1.5,4.15,1111122 
ENP,ioos.station.NOAA.NDBC:TRRF1:1,2015-03-02T17:00:00Z,25.2170,-80.6500,1.5,3.99,1111122 
ENP,ioos.station.NOAA.NDBC:TRRF1:1,2015-03-02T18:00:00Z,25.2170,-80.6500,1.5,3.84,1111122 
ENP,ioos.station.NOAA.NDBC:TRRF1:1,2015-03-02T19:00:00Z,25.2170,-80.6500,1.5,3.73,1111122 
ENP,ioos.station.NOAA.NDBC:TRRF1:1,2015-03-02T20:00:00Z,25.2170,-80.6500,1.5,3.66,1111122 
ENP,ioos.station.NOAA.NDBC:TRRF1:1,2015-03-02T21:00:00Z,25.2170,-80.6500,1.5,3.61,1111122 
ENP,ioos.station.NOAA.NDBC:TRRF1:1,2015-03-02T22:00:00Z,25.2170,-80.6500,1.5,3.56,1111122 
ENP,ioos.station.NOAA.NDBC:TRRF1:1,2015-03-02T23:00:00Z,25.2170,-80.6500,1.5,3.53,1111122 
ENP,ioos.station.NOAA.NDBC:TRRF1:1,2015-03-03T00:00:00Z,25.2170,-80.6500,1.5,3.5,1111122 
ENP,ioos.station.NOAA.NDBC:TRRF1:1,2015-03-03T01:00:00Z,25.2170,-80.6500,1.5,3.49,1111122 
ENP,ioos.station.NOAA.NDBC:TRRF1:1,2015-03-03T02:00:00Z,25.2170,-80.6500,1.5,3.49,1111122 
ENP,ioos.station.NOAA.NDBC:TRRF1:1,2015-03-03T03:00:00Z,25.2170,-80.6500,1.5,3.54,1111122 
ENP,ioos.station.NOAA.NDBC:TRRF1:1,2015-03-03T05:00:00Z,25.2170,-80.6500,1.5,3.5,1111122 
ENP,ioos.station.NOAA.NDBC:TRRF1:1,2015-03-03T06:00:00Z,25.2170,-80.6500,1.5,3.47,1111122 
ENP,ioos.station.NOAA.NDBC:TRRF1:1,2015-03-03T07:00:00Z,25.2170,-80.6500,1.5,3.43,1111122 
ENP,ioos.station.NOAA.NDBC:TRRF1:1,2015-03-03T08:00:00Z,25.2170,-80.6500,1.5,3.4,1111122 
ENP,ioos.station.NOAA.NDBC:TRRF1:1,2015-03-03T09:00:00Z,25.2170,-80.6500,1.5,3.34,1111122 
ENP,ioos.station.NOAA.NDBC:TRRF1:1,2015-03-03T10:00:00Z,25.2170,-80.6500,1.5,3.27,1111122 
ENP,ioos.station.NOAA.NDBC:TRRF1:1,2015-03-03T11:00:00Z,25.2170,-80.6500,1.5,3.22,1111122 
ENP,ioos.station.NOAA.NDBC:TRRF1:1,2015-03-03T12:00:00Z,25.2170,-80.6500,1.5,3.2,1111122 
ENP,ioos.station.NOAA.NDBC:TRRF1:1,2015-03-03T13:00:00Z,25.2170,-80.6500,1.5,3.14,1111122 
ENP,ioos.station.NOAA.NDBC:TRRF1:1,2015-03-03T14:00:00Z,25.2170,-80.6500,1.5,3.12,1111122 
ENP,ioos.station.NOAA.NDBC:TRRF1:1,2015-03-03T15:00:00Z,25.2170,-80.6500,1.5,3.05,1111122 
ENP,ioos.station.NOAA.NDBC:TRRF1:1,2015-03-03T16:00:00Z,25.2170,-80.6500,1.5,2.97,1111122 
ENP,ioos.station.NOAA.NDBC:TRRF1:1,2015-03-03T17:00:00Z,25.2170,-80.6500,1.5,2.91,1111122 
ENP,ioos.station.NOAA.NDBC:TRRF1:1,2015-03-03T18:00:00Z,25.2170,-80.6500,1.5,2.87,1111122 
ENP,ioos.station.NOAA.NDBC:TRRF1:1,2015-03-03T19:00:00Z,25.2170,-80.6500,1.5,2.85,1111122 
ENP,ioos.station.NOAA.NDBC:TRRF1:1,2015-03-03T20:00:00Z,25.2170,-80.6500,1.5,2.83,1111122 
ENP,ioos.station.NOAA.NDBC:TRRF1:1,2015-03-03T21:00:00Z,25.2170,-80.6500,1.5,2.81,1111122 
ENP,ioos.station.NOAA.NDBC:TRRF1:1,2015-03-03T22:00:00Z,25.2170,-80.6500,1.5,2.79,1111122 
ENP,ioos.station.NOAA.NDBC:TRRF1:1,2015-03-04T00:00:00Z,25.2170,-80.6500,1.5,2.77,1111122 
ENP,ioos.station.NOAA.NDBC:TRRF1:1,2015-03-04T01:00:00Z,25.2170,-80.6500,1.5,2.76,1111122 
ENP,ioos.station.NOAA.NDBC:TRRF1:1,2015-03-04T02:00:00Z,25.2170,-80.6500,1.5,2.75,1111122 
ENP,ioos.station.NOAA.NDBC:TRRF1:1,2015-03-04T04:00:00Z,25.2170,-80.6500,1.5,2.77,1111122 
ENP,ioos.station.NOAA.NDBC:TRRF1:1,2015-03-04T05:00:00Z,25.2170,-80.6500,1.5,2.77,1111122 
ENP,ioos.station.NOAA.NDBC:TRRF1:1,2015-03-04T06:00:00Z,25.2170,-80.6500,1.5,2.78,1111122 
ENP,ioos.station.NOAA.NDBC:TRRF1:1,2015-03-04T07:00:00Z,25.2170,-80.6500,1.5,2.78,1111122 
ENP,ioos.station.NOAA.NDBC:TRRF1:1,2015-03-04T08:00:00Z,25.2170,-80.6500,1.5,2.77,1111122 
ENP,ioos.station.NOAA.NDBC:TRRF1:1,2015-03-04T09:00:00Z,25.2170,-80.6500,1.5,2.75,1111122 
ENP,ioos.station.NOAA.NDBC:TRRF1:1,2015-03-04T10:00:00Z,25.2170,-80.6500,1.5,2.74,1111122 
ENP,ioos.station.NOAA.NDBC:TRRF1:1,2015-03-04T11:00:00Z,25.2170,-80.6500,1.5,2.73,1111122 
ENP,ioos.station.NOAA.NDBC:TRRF1:1,2015-03-04T12:00:00Z,25.2170,-80.6500,1.5,2.74,1111122 
ENP,ioos.station.NOAA.NDBC:TRRF1:1,2015-03-04T13:00:00Z,25.2170,-80.6500,1.5,2.74,1111122 
ENP,ioos.station.NOAA.NDBC:TRRF1:1,2015-03-04T14:00:00Z,25.2170,-80.6500,1.5,2.72,1111122 
ENP,ioos.station.NOAA.NDBC:TRRF1:1,2015-03-04T15:00:00Z,25.2170,-80.6500,1.5,2.69,1111122 
ENP,ioos.station.NOAA.NDBC:TRRF1:1,2015-03-04T16:00:00Z,25.2170,-80.6500,1.5,2.65,1111122 
ENP,ioos.station.NOAA.NDBC:TRRF1:1,2015-03-04T17:00:00Z,25.2170,-80.6500,1.5,2.64,1111122 
ENP,ioos.station.NOAA.NDBC:TRRF1:1,2015-03-04T18:00:00Z,25.2170,-80.6500,1.5,2.63,1111122 
ENP,ioos.station.NOAA.NDBC:TRRF1:1,2015-03-04T19:00:00Z,25.2170,-80.6500,1.5,2.61,1111122 
ENP,ioos.station.NOAA.NDBC:TRRF1:1,2015-03-04T20:00:00Z,25.2170,-80.6500,1.5,2.58,1111122 
ENP,ioos.station.NOAA.NDBC:TRRF1:1,2015-03-04T21:00:00Z,25.2170,-80.6500,1.5,2.56,1111122 
ENP,ioos.station.NOAA.NDBC:TRRF1:1,2015-03-04T22:00:00Z,25.2170,-80.6500,1.5,2.53,1111122 
ENP,ioos.station.NOAA.NDBC:TRRF1:1,2015-03-04T23:00:00Z,25.2170,-80.6500,1.5,2.52,1111122 
ENP,ioos.station.NOAA.NDBC:TRRF1:1,2015-03-05T00:00:00Z,25.2170,-80.6500,1.5,2.5,1111122 
ENP,ioos.station.NOAA.NDBC:TRRF1:1,2015-03-05T01:00:00Z,25.2170,-80.6500,1.5,2.5,1111122 
ENP,ioos.station.NOAA.NDBC:TRRF1:1,2015-03-05T02:00:00Z,25.2170,-80.6500,1.5,2.49,1111122 
ENP,ioos.station.NOAA.NDBC:TRRF1:1,2015-03-05T04:00:00Z,25.2170,-80.6500,1.5,2.49,1111122 
ENP,ioos.station.NOAA.NDBC:TRRF1:1,2015-03-05T05:00:00Z,25.2170,-80.6500,1.5,2.49,1111122 
ENP,ioos.station.NOAA.NDBC:TRRF1:1,2015-03-05T06:00:00Z,25.2170,-80.6500,1.5,2.5,1111122 
ENP,ioos.station.NOAA.NDBC:TRRF1:1,2015-03-05T07:00:00Z,25.2170,-80.6500,1.5,2.5,1111122 
ENP,ioos.station.NOAA.NDBC:TRRF1:1,2015-03-05T08:00:00Z,25.2170,-80.6500,1.5,2.49,1111122 
ENP,ioos.station.NOAA.NDBC:TRRF1:1,2015-03-05T09:00:00Z,25.2170,-80.6500,1.5,2.49,1111122 
ENP,ioos.station.NOAA.NDBC:TRRF1:1,2015-03-05T11:00:00Z,25.2170,-80.6500,1.5,2.5,1111122 
ENP,ioos.station.NOAA.NDBC:TRRF1:1,2015-03-05T12:00:00Z,25.2170,-80.6500,1.5,2.5,1111122 
ENP,ioos.station.NOAA.NDBC:TRRF1:1,2015-03-05T13:00:00Z,25.2170,-80.6500,1.5,2.51,1111122 
ENP,ioos.station.NOAA.NDBC:TRRF1:1,2015-03-05T14:00:00Z,25.2170,-80.6500,1.5,2.52,1111122 
ENP,ioos.station.NOAA.NDBC:TRRF1:1,2015-03-05T15:00:00Z,25.2170,-80.6500,1.5,2.52,1111122 
ENP,ioos.station.NOAA.NDBC:TRRF1:1,2015-03-05T16:00:00Z,25.2170,-80.6500,1.5,2.52,1111122 
ENP,ioos.station.NOAA.NDBC:TRRF1:1,2015-03-05T17:00:00Z,25.2170,-80.6500,1.5,2.54,1111122 
ENP,ioos.station.NOAA.NDBC:TRRF1:1,2015-03-05T18:00:00Z,25.2170,-80.6500,1.5,2.54,1111122 
ENP,ioos.station.NOAA.NDBC:TRRF1:1,2015-03-05T19:00:00Z,25.2170,-80.6500,1.5,2.55,1111122 
ENP,ioos.station.NOAA.NDBC:TRRF1:1,2015-03-05T20:00:00Z,25.2170,-80.6500,1.5,2.56,1111122 
ENP,ioos.station.NOAA.NDBC:TRRF1:1,2015-03-05T21:00:00Z,25.2170,-80.6500,1.5,2.56,1111122 
ENP,ioos.station.NOAA.NDBC:TRRF1:1,2015-03-05T22:00:00Z,25.2170,-80.6500,1.5,2.56,1111122 
ENP,ioos.station.NOAA.NDBC:TRRF1:1,2015-03-05T23:00:00Z,25.2170,-80.6500,1.5,2.56,1111122 
ENP,ioos.station.NOAA.NDBC:TRRF1:1,2015-03-06T00:00:00Z,25.2170,-80.6500,1.5,2.57,1111122 
ENP,ioos.station.NOAA.NDBC:TRRF1:1,2015-03-06T01:00:00Z,25.2170,-80.6500,1.5,2.57,1111122 
ENP,ioos.station.NOAA.NDBC:TRRF1:1,2015-03-06T02:00:00Z,25.2170,-80.6500,1.5,2.57,1111122 
ENP,ioos.station.NOAA.NDBC:TRRF1:1,2015-03-06T03:00:00Z,25.2170,-80.6500,1.5,2.57,1111122 
ENP,ioos.station.NOAA.NDBC:TRRF1:1,2015-03-06T05:00:00Z,25.2170,-80.6500,1.5,2.57,1111122 
ENP,ioos.station.NOAA.NDBC:TRRF1:1,2015-03-06T06:00:00Z,25.2170,-80.6500,1.5,2.57,1111122 
ENP,ioos.station.NOAA.NDBC:TRRF1:1,2015-03-06T07:00:00Z,25.2170,-80.6500,1.5,2.57,1111122 
ENP,ioos.station.NOAA.NDBC:TRRF1:1,2015-03-06T08:00:00Z,25.2170,-80.6500,1.5,2.56,1111122 
ENP,ioos.station.NOAA.NDBC:TRRF1:1,2015-03-06T09:00:00Z,25.2170,-80.6500,1.5,2.56,1111122 
ENP,ioos.station.NOAA.NDBC:TRRF1:1,2015-03-06T11:00:00Z,25.2170,-80.6500,1.5,2.56,1111122 
ENP,ioos.station.NOAA.NDBC:TRRF1:1,2015-03-06T12:00:00Z,25.2170,-80.6500,1.5,2.56,1111122 
ENP,ioos.station.NOAA.NDBC:TRRF1:1,2015-03-06T13:00:00Z,25.2170,-80.6500,1.5,2.54,1111122 
ENP,ioos.station.NOAA.NDBC:TRRF1:1,2015-03-06T14:00:00Z,25.2170,-80.6500,1.5,2.52,1111122 
ENP,ioos.station.NOAA.NDBC:TRRF1:1,2015-03-06T15:00:00Z,25.2170,-80.6500,1.5,2.52,1111122 
ENP,ioos.station.NOAA.NDBC:TRRF1:1,2015-03-06T16:00:00Z,25.2170,-80.6500,1.5,2.52,1111122 
ENP,ioos.station.NOAA.NDBC:TRRF1:1,2015-03-06T17:00:00Z,25.2170,-80.6500,1.5,2.5,1111122 
ENP,ioos.station.NOAA.NDBC:TRRF1:1,2015-03-06T18:00:00Z,25.2170,-80.6500,1.5,2.46,1111122 
ENP,ioos.station.NOAA.NDBC:TRRF1:1,2015-03-06T19:00:00Z,25.2170,-80.6500,1.5,2.44,1111122 
ENP,ioos.station.NOAA.NDBC:TRRF1:1,2015-03-06T20:00:00Z,25.2170,-80.6500,1.5,2.42,1111122 
ENP,ioos.station.NOAA.NDBC:TRRF1:1,2015-03-06T21:00:00Z,25.2170,-80.6500,1.5,2.41,1111122 
ENP,ioos.station.NOAA.NDBC:TRRF1:1,2015-03-06T22:00:00Z,25.2170,-80.6500,1.5,2.4,1111122 
ENP,ioos.station.NOAA.NDBC:TRRF1:1,2015-03-06T23:00:00Z,25.2170,-80.6500,1.5,2.39,1111122 
ENP,ioos.station.NOAA.NDBC:TRRF1:1,2015-03-07T00:00:00Z,25.2170,-80.6500,1.5,2.39,1111122 
ENP,ioos.station.NOAA.NDBC:TRRF1:1,2015-03-07T01:00:00Z,25.2170,-80.6500,1.5,2.38,1111122 
ENP,ioos.station.NOAA.NDBC:TRRF1:1,2015-03-07T02:00:00Z,25.2170,-80.6500,1.5,2.39,1111122 
ENP,ioos.station.NOAA.NDBC:TRRF1:1,2015-03-07T03:00:00Z,25.2170,-80.6500,1.5,2.39,1111122 
ENP,ioos.station.NOAA.NDBC:TRRF1:1,2015-03-07T05:00:00Z,25.2170,-80.6500,1.5,2.39,1111122 
ENP,ioos.station.NOAA.NDBC:TRRF1:1,2015-03-07T06:00:00Z,25.2170,-80.6500,1.5,2.39,1111122 
ENP,ioos.station.NOAA.NDBC:TRRF1:1,2015-03-07T07:00:00Z,25.2170,-80.6500,1.5,2.39,1111122 
ENP,ioos.station.NOAA.NDBC:TRRF1:1,2015-03-07T08:00:00Z,25.2170,-80.6500,1.5,2.39,1111122 
ENP,ioos.station.NOAA.NDBC:TRRF1:1,2015-03-07T09:00:00Z,25.2170,-80.6500,1.5,2.39,1111122 
ENP,ioos.station.NOAA.NDBC:TRRF1:1,2015-03-07T10:00:00Z,25.2170,-80.6500,1.5,2.39,1111122 
ENP,ioos.station.NOAA.NDBC:TRRF1:1,2015-03-07T11:00:00Z,25.2170,-80.6500,1.5,2.39,1111122 
ENP,ioos.station.NOAA.NDBC:TRRF1:1,2015-03-07T12:00:00Z,25.2170,-80.6500,1.5,2.39,1111122 
ENP,ioos.station.NOAA.NDBC:TRRF1:1,2015-03-07T13:00:00Z,25.2170,-80.6500,1.5,2.4,1111122 
ENP,ioos.station.NOAA.NDBC:TRRF1:1,2015-03-07T14:00:00Z,25.2170,-80.6500,1.5,2.4,1111122 
ENP,ioos.station.NOAA.NDBC:TRRF1:1,2015-03-07T15:00:00Z,25.2170,-80.6500,1.5,2.4,1111122 
ENP,ioos.station.NOAA.NDBC:TRRF1:1,2015-03-07T16:00:00Z,25.2170,-80.6500,1.5,2.38,1111122 
ENP,ioos.station.NOAA.NDBC:TRRF1:1,2015-03-07T17:00:00Z,25.2170,-80.6500,1.5,2.37,1111122 
ENP,ioos.station.NOAA.NDBC:TRRF1:1,2015-03-07T18:00:00Z,25.2170,-80.6500,1.5,2.35,1111122 
ENP,ioos.station.NOAA.NDBC:TRRF1:1,2015-03-07T19:00:00Z,25.2170,-80.6500,1.5,2.34,1111122 
ENP,ioos.station.NOAA.NDBC:TRRF1:1,2015-03-07T20:00:00Z,25.2170,-80.6500,1.5,2.32,1111122 
ENP,ioos.station.NOAA.NDBC:TRRF1:1,2015-03-07T21:00:00Z,25.2170,-80.6500,1.5,2.31,1111122 
ENP,ioos.station.NOAA.NDBC:TRRF1:1,2015-03-07T22:00:00Z,25.2170,-80.6500,1.5,2.3,1111122 
ENP,ioos.station.NOAA.NDBC:TRRF1:1,2015-03-07T23:00:00Z,25.2170,-80.6500,1.5,2.29,1111122 
ENP,ioos.station.NOAA.NDBC:TRRF1:1,2015-03-08T00:00:00Z,25.2170,-80.6500,1.5,2.29,1111122 
ENP,ioos.station.NOAA.NDBC:TRRF1:1,2015-03-08T01:00:00Z,25.2170,-80.6500,1.5,2.28,1111122 
ENP,ioos.station.NOAA.NDBC:TRRF1:1,2015-03-08T02:00:00Z,25.2170,-80.6500,1.5,2.28,1111122 
ENP,ioos.station.NOAA.NDBC:TRRF1:1,2015-03-08T06:00:00Z,25.2170,-80.6500,1.5,2.29,1111122 
ENP,ioos.station.NOAA.NDBC:TRRF1:1,2015-03-08T09:00:00Z,25.2170,-80.6500,1.5,2.29,1111122 
ENP,ioos.station.NOAA.NDBC:TRRF1:1,2015-03-08T10:00:00Z,25.2170,-80.6500,1.5,2.29,1111122 
ENP,ioos.station.NOAA.NDBC:TRRF1:1,2015-03-08T11:00:00Z,25.2170,-80.6500,1.5,2.3,1111122 
ENP,ioos.station.NOAA.NDBC:TRRF1:1,2015-03-08T12:00:00Z,25.2170,-80.6500,1.5,2.3,1111122 
ENP,ioos.station.NOAA.NDBC:TRRF1:1,2015-03-08T13:00:00Z,25.2170,-80.6500,1.5,2.3,1111122 
ENP,ioos.station.NOAA.NDBC:TRRF1:1,2015-03-08T14:00:00Z,25.2170,-80.6500,1.5,2.3,1111122 
ENP,ioos.station.NOAA.NDBC:TRRF1:1,2015-03-08T15:00:00Z,25.2170,-80.6500,1.5,2.3,1111122 
ENP,ioos.station.NOAA.NDBC:TRRF1:1,2015-03-08T16:00:00Z,25.2170,-80.6500,1.5,2.29,1111122 
ENP,ioos.station.NOAA.NDBC:TRRF1:1,2015-03-08T17:00:00Z,25.2170,-80.6500,1.5,2.28,1111122 
ENP,ioos.station.NOAA.NDBC:TRRF1:1,2015-03-08T19:00:00Z,25.2170,-80.6500,1.5,2.26,1111122 
ENP,ioos.station.NOAA.NDBC:TRRF1:1,2015-03-08T20:00:00Z,25.2170,-80.6500,1.5,2.24,1111122 
ENP,ioos.station.NOAA.NDBC:TRRF1:1,2015-03-08T21:00:00Z,25.2170,-80.6500,1.5,2.24,1111122 
ENP,ioos.station.NOAA.NDBC:TRRF1:1,2015-03-08T22:00:00Z,25.2170,-80.6500,1.5,2.23,1111122 
ENP,ioos.station.NOAA.NDBC:TRRF1:1,2015-03-08T23:00:00Z,25.2170,-80.6500,1.5,2.22,1111122 
ENP,ioos.station.NOAA.NDBC:TRRF1:1,2015-03-09T00:00:00Z,25.2170,-80.6500,1.5,2.22,1111122 
ENP,ioos.station.NOAA.NDBC:TRRF1:1,2015-03-09T01:00:00Z,25.2170,-80.6500,1.5,2.22,1111122 
ENP,ioos.station.NOAA.NDBC:TRRF1:1,2015-03-09T02:00:00Z,25.2170,-80.6500,1.5,2.22,1111122 
ENP,ioos.station.NOAA.NDBC:TRRF1:1,2015-03-09T04:00:00Z,25.2170,-80.6500,1.5,2.22,1111122 
ENP,ioos.station.NOAA.NDBC:TRRF1:1,2015-03-09T06:00:00Z,25.2170,-80.6500,1.5,2.22,1111122 
ENP,ioos.station.NOAA.NDBC:TRRF1:1,2015-03-09T07:00:00Z,25.2170,-80.6500,1.5,2.21,1111122 
ENP,ioos.station.NOAA.NDBC:TRRF1:1,2015-03-09T08:00:00Z,25.2170,-80.6500,1.5,2.21,1111122 
ENP,ioos.station.NOAA.NDBC:TRRF1:1,2015-03-09T09:00:00Z,25.2170,-80.6500,1.5,2.21,1111122 
ENP,ioos.station.NOAA.NDBC:TRRF1:1,2015-03-09T10:00:00Z,25.2170,-80.6500,1.5,2.21,1111122 
ENP,ioos.station.NOAA.NDBC:TRRF1:1,2015-03-09T11:00:00Z,25.2170,-80.6500,1.5,2.21,1111122 
ENP,ioos.station.NOAA.NDBC:TRRF1:1,2015-03-09T12:00:00Z,25.2170,-80.6500,1.5,2.21,1111122 
ENP,ioos.station.NOAA.NDBC:TRRF1:1,2015-03-09T13:00:00Z,25.2170,-80.6500,1.5,2.21,1111122 
ENP,ioos.station.NOAA.NDBC:TRRF1:1,2015-03-09T14:00:00Z,25.2170,-80.6500,1.5,2.19,1111122 
ENP,ioos.station.NOAA.NDBC:TRRF1:1,2015-03-09T15:00:00Z,25.2170,-80.6500,1.5,2.18,1111122 
ENP,ioos.station.NOAA.NDBC:TRRF1:1,2015-03-09T16:00:00Z,25.2170,-80.6500,1.5,2.16,1111122 
ENP,ioos.station.NOAA.NDBC:TRRF1:1,2015-03-09T17:00:00Z,25.2170,-80.6500,1.5,2.15,1111122 
ENP,ioos.station.NOAA.NDBC:TRRF1:1,2015-03-09T18:00:00Z,25.2170,-80.6500,1.5,2.13,1111122 
ENP,ioos.station.NOAA.NDBC:TRRF1:1,2015-03-09T19:00:00Z,25.2170,-80.6500,1.5,2.12,1111122 
ENP,ioos.station.NOAA.NDBC:TRRF1:1,2015-03-09T20:00:00Z,25.2170,-80.6500,1.5,2.11,1111122 
ENP,ioos.station.NOAA.NDBC:TRRF1:1,2015-03-09T23:00:00Z,25.2170,-80.6500,1.5,2.09,1111122 
ENP,ioos.station.NOAA.NDBC:TRRF1:1,2015-03-10T00:00:00Z,25.2170,-80.6500,1.5,2.08,1111122 
ENP,ioos.station.NOAA.NDBC:TRRF1:1,2015-03-10T01:00:00Z,25.2170,-80.6500,1.5,2.09,1111122 
ENP,ioos.station.NOAA.NDBC:TRRF1:1,2015-03-10T02:00:00Z,25.2170,-80.6500,1.5,2.09,1111122 
ENP,ioos.station.NOAA.NDBC:TRRF1:1,2015-03-10T04:00:00Z,25.2170,-80.6500,1.5,2.09,1111122 
ENP,ioos.station.NOAA.NDBC:TRRF1:1,2015-03-10T06:00:00Z,25.2170,-80.6500,1.5,2.11,1111122 
ENP,ioos.station.NOAA.NDBC:TRRF1:1,2015-03-10T07:00:00Z,25.2170,-80.6500,1.5,2.11,1111122 
ENP,ioos.station.NOAA.NDBC:TRRF1:1,2015-03-10T09:00:00Z,25.2170,-80.6500,1.5,2.11,1111122 
ENP,ioos.station.NOAA.NDBC:TRRF1:1,2015-03-10T10:00:00Z,25.2170,-80.6500,1.5,2.11,1111122 
ENP,ioos.station.NOAA.NDBC:TRRF1:1,2015-03-10T12:00:00Z,25.2170,-80.6500,1.5,2.13,1111122 
ENP,ioos.station.NOAA.NDBC:TRRF1:1,2015-03-10T13:00:00Z,25.2170,-80.6500,1.5,2.14,1111122 
ENP,ioos.station.NOAA.NDBC:TRRF1:1,2015-03-10T14:00:00Z,25.2170,-80.6500,1.5,2.15,1111122 
ENP,ioos.station.NOAA.NDBC:TRRF1:1,2015-03-10T15:00:00Z,25.2170,-80.6500,1.5,2.16,1111122 
ENP,ioos.station.NOAA.NDBC:TRRF1:1,2015-03-10T16:00:00Z,25.2170,-80.6500,1.5,2.17,1111122 
ENP,ioos.station.NOAA.NDBC:TRRF1:1,2015-03-10T17:00:00Z,25.2170,-80.6500,1.5,2.19,1111122 
ENP,ioos.station.NOAA.NDBC:TRRF1:1,2015-03-10T18:00:00Z,25.2170,-80.6500,1.5,2.21,1111122 
ENP,ioos.station.NOAA.NDBC:TRRF1:1,2015-03-10T20:00:00Z,25.2170,-80.6500,1.5,2.25,1111122 
ENP,ioos.station.NOAA.NDBC:TRRF1:1,2015-03-10T23:00:00Z,25.2170,-80.6500,1.5,2.31,1111122 
ENP,ioos.station.NOAA.NDBC:TRRF1:1,2015-03-11T00:00:00Z,25.2170,-80.6500,1.5,2.35,1111122 
ENP,ioos.station.NOAA.NDBC:TRRF1:1,2015-03-11T01:00:00Z,25.2170,-80.6500,1.5,2.37,1111122 
ENP,ioos.station.NOAA.NDBC:TRRF1:1,2015-03-11T02:00:00Z,25.2170,-80.6500,1.5,2.38,1111122 
ENP,ioos.station.NOAA.NDBC:TRRF1:1,2015-03-11T04:00:00Z,25.2170,-80.6500,1.5,2.74,1111122 
ENP,ioos.station.NOAA.NDBC:TRRF1:1,2015-03-11T06:00:00Z,25.2170,-80.6500,1.5,2.5,1111122 
ENP,ioos.station.NOAA.NDBC:TRRF1:1,2015-03-11T07:00:00Z,25.2170,-80.6500,1.5,2.45,1111122 
ENP,ioos.station.NOAA.NDBC:TRRF1:1,2015-03-11T08:00:00Z,25.2170,-80.6500,1.5,2.43,1111122 
ENP,ioos.station.NOAA.NDBC:TRRF1:1,2015-03-11T09:00:00Z,25.2170,-80.6500,1.5,2.43,1111122 
ENP,ioos.station.NOAA.NDBC:TRRF1:1,2015-03-11T10:00:00Z,25.2170,-80.6500,1.5,2.43,1111122 
ENP,ioos.station.NOAA.NDBC:TRRF1:1,2015-03-11T11:00:00Z,25.2170,-80.6500,1.5,2.43,1111122 
ENP,ioos.station.NOAA.NDBC:TRRF1:1,2015-03-11T12:00:00Z,25.2170,-80.6500,1.5,2.44,1111122 
ENP,ioos.station.NOAA.NDBC:TRRF1:1,2015-03-11T13:00:00Z,25.2170,-80.6500,1.5,2.44,1111122 
ENP,ioos.station.NOAA.NDBC:TRRF1:1,2015-03-11T14:00:00Z,25.2170,-80.6500,1.5,2.44,1111122 
ENP,ioos.station.NOAA.NDBC:TRRF1:1,2015-03-11T15:00:00Z,25.2170,-80.6500,1.5,2.45,1111122 
ENP,ioos.station.NOAA.NDBC:TRRF1:1,2015-03-11T16:00:00Z,25.2170,-80.6500,1.5,2.45,1111122 
ENP,ioos.station.NOAA.NDBC:TRRF1:1,2015-03-11T17:00:00Z,25.2170,-80.6500,1.5,2.46,1111122 
ENP,ioos.station.NOAA.NDBC:TRRF1:1,2015-03-11T18:00:00Z,25.2170,-80.6500,1.5,2.47,1111122 
ENP,ioos.station.NOAA.NDBC:TRRF1:1,2015-03-11T20:00:00Z,25.2170,-80.6500,1.5,2.57,1111122 
ENP,ioos.station.NOAA.NDBC:TRRF1:1,2015-03-11T21:00:00Z,25.2170,-80.6500,1.5,2.61,1111122 
ENP,ioos.station.NOAA.NDBC:TRRF1:1,2015-03-11T22:00:00Z,25.2170,-80.6500,1.5,2.65,1111122 
ENP,ioos.station.NOAA.NDBC:TRRF1:1,2015-03-11T23:00:00Z,25.2170,-80.6500,1.5,2.69,1111122 
ENP,ioos.station.NOAA.NDBC:TRRF1:1,2015-03-12T00:00:00Z,25.2170,-80.6500,1.5,2.72,1111122 
ENP,ioos.station.NOAA.NDBC:TRRF1:1,2015-03-12T01:00:00Z,25.2170,-80.6500,1.5,2.74,1111122 
ENP,ioos.station.NOAA.NDBC:TRRF1:1,2015-03-12T02:00:00Z,25.2170,-80.6500,1.5,2.75,1111122 
ENP,ioos.station.NOAA.NDBC:TRRF1:1,2015-03-12T04:00:00Z,25.2170,-80.6500,1.5,2.79,1111122 
ENP,ioos.station.NOAA.NDBC:TRRF1:1,2015-03-12T06:00:00Z,25.2170,-80.6500,1.5,3.03,1111122 
ENP,ioos.station.NOAA.NDBC:TRRF1:1,2015-03-12T07:00:00Z,25.2170,-80.6500,1.5,3.17,1111122 
ENP,ioos.station.NOAA.NDBC:TRRF1:1,2015-03-12T08:00:00Z,25.2170,-80.6500,1.5,3.46,1111122 
ENP,ioos.station.NOAA.NDBC:TRRF1:1,2015-03-12T09:00:00Z,25.2170,-80.6500,1.5,3.52,1111122 
ENP,ioos.station.NOAA.NDBC:TRRF1:1,2015-03-12T10:00:00Z,25.2170,-80.6500,1.5,3.46,1111122 
ENP,ioos.station.NOAA.NDBC:TRRF1:1,2015-03-12T11:00:00Z,25.2170,-80.6500,1.5,3.43,1111122 
ENP,ioos.station.NOAA.NDBC:TRRF1:1,2015-03-12T12:00:00Z,25.2170,-80.6500,1.5,3.4,1111122 
ENP,ioos.station.NOAA.NDBC:TRRF1:1,2015-03-12T13:00:00Z,25.2170,-80.6500,1.5,3.26,1111122 
ENP,ioos.station.NOAA.NDBC:TRRF1:1,2015-03-12T14:00:00Z,25.2170,-80.6500,1.5,3.14,1111122 
ENP,ioos.station.NOAA.NDBC:TRRF1:1,2015-03-12T15:00:00Z,25.2170,-80.6500,1.5,2.98,1111122 
ENP,ioos.station.NOAA.NDBC:TRRF1:1,2015-03-12T16:00:00Z,25.2170,-80.6500,1.5,2.87,1111122 
ENP,ioos.station.NOAA.NDBC:TRRF1:1,2015-03-12T17:00:00Z,25.2170,-80.6500,1.5,2.8,1111122 
ENP,ioos.station.NOAA.NDBC:TRRF1:1,2015-03-12T19:00:00Z,25.2170,-80.6500,1.5,2.78,1111122 
ENP,ioos.station.NOAA.NDBC:TRRF1:1,2015-03-12T20:00:00Z,25.2170,-80.6500,1.5,2.8,1111122 
ENP,ioos.station.NOAA.NDBC:TRRF1:1,2015-03-12T22:00:00Z,25.2170,-80.6500,1.5,2.79,1111122 
ENP,ioos.station.NOAA.NDBC:TRRF1:1,2015-03-12T23:00:00Z,25.2170,-80.6500,1.5,2.84,1111122 
ENP,ioos.station.NOAA.NDBC:TRRF1:1,2015-03-13T00:00:00Z,25.2170,-80.6500,1.5,2.88,1111122 
ENP,ioos.station.NOAA.NDBC:TRRF1:1,2015-03-13T02:00:00Z,25.2170,-80.6500,1.5,2.93,1111122 
ENP,ioos.station.NOAA.NDBC:TRRF1:1,2015-03-13T04:00:00Z,25.2170,-80.6500,1.5,3.0,1111122 
ENP,ioos.station.NOAA.NDBC:TRRF1:1,2015-03-13T06:00:00Z,25.2170,-80.6500,1.5,3.06,1111122 
ENP,ioos.station.NOAA.NDBC:TRRF1:1,2015-03-13T07:00:00Z,25.2170,-80.6500,1.5,3.08,1111122 
ENP,ioos.station.NOAA.NDBC:TRRF1:1,2015-03-13T08:00:00Z,25.2170,-80.6500,1.5,3.1,1111122 
ENP,ioos.station.NOAA.NDBC:TRRF1:1,2015-03-13T09:00:00Z,25.2170,-80.6500,1.5,3.1,1111122 
ENP,ioos.station.NOAA.NDBC:TRRF1:1,2015-03-13T10:00:00Z,25.2170,-80.6500,1.5,3.12,1111122 
ENP,ioos.station.NOAA.NDBC:TRRF1:1,2015-03-13T11:00:00Z,25.2170,-80.6500,1.5,3.12,1111122 
ENP,ioos.station.NOAA.NDBC:TRRF1:1,2015-03-13T12:00:00Z,25.2170,-80.6500,1.5,3.14,1111122 
ENP,ioos.station.NOAA.NDBC:TRRF1:1,2015-03-13T13:00:00Z,25.2170,-80.6500,1.5,3.25,1111122 
ENP,ioos.station.NOAA.NDBC:TRRF1:1,2015-03-13T14:00:00Z,25.2170,-80.6500,1.5,3.43,1111122 
ENP,ioos.station.NOAA.NDBC:TRRF1:1,2015-03-13T15:00:00Z,25.2170,-80.6500,1.5,3.63,1111122 